STARLINK-4067, 52668

Orbit data source: Space-Track

STARLINK-4067, 52668 is a payload satellite owned by SpaceX/Seattle (US) in LEO that was launched on Wed, 18 May 2022 UTC via an FALCON 9 launch vehicle from the Air Force Eastern Test Range (AFETR). Payload-class satellites include a variety of spacecraft equipped with specific instruments for various scientific and technological missions. These include communications satellites like Starlink; space stations such as the ISS; scientific satellites like the Hubble; Earth observation satellites from companies like Planet Labs, Umbra, and HawkEye 360; GPS; miniature CubeSats for education and research; and military/defense satellites.

Loading next visibility...
Identifier
52668, 2022-053N
Orbit
LEO
Country
Flag of USUS
Related business
Manufacturer
SpaceX/Seattle
Mission
Operational Commercial Communications
Bus & Motor
STARLINK, Unknown motor
Mass
297 kg wet, ~275 kg dry
Launch date (UTC)
2022-05-18 (4 years ago)
Launch vehicle
FALCON 9
Launch site
Air Force Eastern Test Range (AFETR)
Object type
Payload
Rocket body
Debris
Shape & HBR
Box + 1 Pan, 10.1 m
Radar Cross Section
13.562 m², Large (>1 m²)

Expand to show TLE details & history
Last TLE update: 2 days ago

TLE from 2 days ago
0 STARLINK-4067
1 52668U 22053N   26171.40382319  .00000612  00000-0  56531-4 0  9999
2 52668  53.1609  52.9060 0001347  98.4093 261.7052 15.08836722226558
Epoch: 2026-06-20T09:41Z
TLE epoch observation values (Epoch: 2026-06-20T09:41:30.323Z)
Latitude
0.00004°
Longitude
-1.08926°
Altitude
540.779 km
Speed
7.593 km/s
True Right ascension
03h 31m 37s
True Declination
0° 00' 00"
Sunlit
Object was in daylight at epoch
Visualization orbit readout
Latitude
Unknown
Longitude
Unknown
Altitude
Unknown
Speed
Unknown
Apparent Right ascension
Unknown
Apparent Declination
Unknown
Sunlit
N/A
Visualization observer readout
Local Sidereal Time
23:08:21
Azimuth
Unknown
Elevation
Unknown
Doppler factor
Unknown
Orbital elements
Apogee altitude
540.939 km
Perigee altitude
539.076 km
Semi-major axis
6,918.144 km
Eccentricity
0.00013
Inclination
53.1609°
RAAN
52.906°
Arg. of periapsis
98.4093°
True anomaly
261.68993°
Mean anomaly
261.7052°
Eccentric anomaly
261.69756°
Mean motion
3.77189 °/min
Orbital period
95.44 mins
BSTAR
0.000056531
Loading maneuver chart data...
Computing Atmospheric mass density...

Documentation

Showing up to 5 results
|